Location: Bellflower
(33.8817°N, 118.1170°W)
Time: 23:10:25
(UTC+00:00)

Meteor 1-31 Rocket - Pass Details

Date: 23 November 2020
Orbit: 520 x 546 km, 97.6° (Epoch: 20 January)

Event Time Altitude Azimuth Distance (km) Brightness Sun altitude
Rises 12:58:03 0° 4° (N) 2,687 6.3 -19.5°
Reaches altitude 10° 13:00:13 10° 359° (N) 1,788 5.3 -19.0°
Maximum altitude 13:03:55 46° 285° (WNW) 714 2.9 -18.3°
Drops below altitude 10° 13:07:34 10° 212° (SSW) 1,761 5.2 -17.6°
Sets 13:09:42 0° 206° (SSW) 2,642 6.2 -17.1°
